DW0479 Weather Reports


time (UTC)temp
C
wind
direction
speed
KPH
gust
KPH
rain 1hr
cm
rain 24hr
cm
rain mn
cm
humidity
%
barometer
mb
20260906170205 33 203 3.2 12.9 0.00 0.61 0.03 65 1012.3
20260906165204 33 292 6.4 14.5 0.00 0.61 0.03 68 1012.5
20260906164204 33 282 4.8 12.9 0.00 0.61 0.03 64 1012.5
20260906163203 33 289 6.4 16.1 0.00 0.61 0.03 65 1012.8
20260906162203 32 295 4.8 12.9 0.00 0.61 0.03 68 1012.9
20260906161204 32 301 4.8 12.9 0.00 0.61 0.03 69 1013.1
20260906160205 32 208 4.8 11.3 0.00 0.61 0.03 69 1013.1
20260906155203 32 251 6.4 11.3 0.00 0.61 0.03 69 1013.2
20260906154202 32 268 4.8 12.9 0.00 0.61 0.03 71 1013.3
20260906153204 31 250 4.8 11.3 0.00 0.61 0.03 71 1013.5
20260906152204 31 239 4.8 8.0 0.00 0.61 0.03 74 1013.5
20260906151204 31 280 3.2 12.9 0.00 0.61 0.03 72 1013.5
20260906150206 31 264 4.8 11.3 0.00 0.61 0.03 76 1013.5
20260906145156 31 275 4.8 11.3 0.00 0.61 0.03 72 1013.6
20260906144155 31 267 4.8 12.9 0.00 0.61 0.03 71 1013.6
20260906143156 30 286 4.8 16.1 0.00 0.61 0.03 78 1013.5
20260906142152 30 257 3.2 8.0 0.00 0.61 0.03 79 1013.5
20260906141153 30 300 4.8 11.3 0.00 0.61 0.03 80 1013.6
20260906140636 29 262 3.2 11.3 0.00 0.61 0.03 82 1013.7
20260906135153 29 293 4.8 11.3 0.00 0.61 0.03 83 1013.8
20260906134153 28 285 1.6 11.3 0.00 0.61 0.03 85 1013.9
20260906133643 28 237 1.6 4.8 0.00 0.61 0.03 86 1013.8
20260906132151 28 186 0.0 0.0 0.00 0.61 0.03 88 1013.9
20260906131152 27 186 0.0 0.0 0.00 0.61 0.03 89 1013.9
20260906130634 27 179 0.0 0.0 0.00 0.61 0.03 91 1013.9
20260906125152 27 179 0.0 0.0 0.00 0.61 0.03 92 1013.8
20260906124141 26 179 0.0 0.0 0.00 0.61 0.03 93 1013.7
20260906124105 26 178 0.0 0.0 0.00 0.61 0.03 94 1013.6
20260906122142 25 179 0.0 0.0 0.00 0.61 0.03 94 1013.4
20260906121143 25 179 0.0 6.4 0.00 0.61 0.03 95 1013.4
20260906120126 24 178 0.0 3.2 0.00 0.61 0.03 95 1013.4
20260906115128 23 178 0.0 0.0 0.00 0.61 0.03 95 1013.2
20260906114126 23 178 0.0 0.0 0.00 0.61 0.03 95 1013.1
20260906114056 23 178 0.0 0.0 0.00 0.61 0.03 95 1013.0
20260906112618 23 178 0.0 0.0 0.00 0.61 0.03 94 1012.9
20260906111126 23 178 0.0 0.0 0.00 0.61 0.03 94 1012.9
20260906110127 23 178 0.0 0.0 0.00 0.61 0.03 94 1012.7
20260906105609 23 178 0.0 0.0 0.00 0.61 0.03 94 1012.5
20260906104126 23 178 0.0 0.0 0.00 0.61 0.03 94 1012.3
20260906103609 23 178 0.0 0.0 0.00 0.61 0.03 94 1012.1
20260906102130 23 178 0.0 0.0 0.00 0.61 0.03 94 1012.0
20260906101125 23 178 0.0 0.0 0.00 0.61 0.03 94 1011.8
20260906100127 23 178 0.0 0.0 0.00 0.61 0.03 94 1011.8
20260906095126 23 178 0.0 0.0 0.00 0.61 0.03 94 1011.9
20260906094608 23 178 0.0 0.0 0.00 0.61 0.03 94 1011.8
20260906093601 23 178 0.0 0.0 0.00 0.61 0.03 94 1011.8
20260906092126 23 178 0.0 0.0 0.00 0.61 0.03 94 1011.7
20260906091127 23 178 0.0 0.0 0.00 0.61 0.03 94 1011.5
20260906090127 23 178 0.0 0.0 0.00 0.61 0.03 94 1011.5
20260906085127 23 178 0.0 0.0 0.00 0.61 0.03 94 1011.4
20260906084126 23 178 0.0 0.0 0.00 0.61 0.03 94 1011.3
20260906083129 23 178 0.0 0.0 0.00 0.61 0.03 94 1011.4
20260906082125 23 178 0.0 0.0 0.03 0.64 0.03 94 1011.4
20260906081123 23 178 0.0 0.0 0.03 0.64 0.03 94 1011.2
20260906080125 23 178 0.0 1.6 0.03 0.64 0.03 94 1011.2
20260906075125 23 178 1.6 6.4 0.03 0.64 0.03 94 1011.3
20260906074126 23 178 0.0 6.4 0.03 0.64 0.03 94 1011.4
20260906073110 23 178 0.0 6.4 0.03 0.64 0.03 94 1011.3
20260906072548 23 178 0.0 1.6 0.00 0.61 0.00 94 1011.4
20260906071110 23 178 0.0 0.0 0.00 0.61 0.00 94 1011.7
20260906070109 24 178 0.0 0.0 0.00 0.61 0.00 93 1011.7
20260906065058 24 178 0.0 1.6 0.00 0.61 0.00 93 1011.9
20260906065012 24 178 0.0 0.0 0.00 0.61 0.00 93 1012.2
20260906063056 24 178 0.0 0.0 0.00 0.61 0.00 93 1012.4
20260906062531 24 178 0.0 0.0 0.00 0.61 0.00 93 1012.5
20260906061055 24 178 0.0 1.6 0.00 0.61 0.00 93 1012.6
20260906060046 24 178 0.0 4.8 0.00 0.61 0.00 93 1012.6
20260906055046 24 178 1.6 6.4 0.00 0.61 0.00 93 1012.7
20260906054537 24 176 1.6 6.4 0.00 0.61 0.00 93 1012.7
20260906053043 25 175 1.6 6.4 0.00 0.61 0.00 93 1012.9
20260906052518 25 175 0.0 1.6 0.00 0.61 0.00 93 1012.9
20260906051041 25 175 0.0 1.6 0.00 0.61 0.00 93 1013.0
20260906050037 25 175 0.0 1.6 0.00 0.61 0.00 93 1013.1
20260906045037 25 176 0.0 1.6 0.00 0.61 0.00 93 1013.1
20260906044038 25 176 0.0 0.0 0.00 0.61 0.00 92 1013.1
20260906043037 25 175 0.0 1.6 0.00 0.61 0.00 92 1013.0
20260906042034 25 175 1.6 6.4 0.00 0.61 0.00 92 1013.0
20260906041033 25 176 0.0 4.8 0.00 0.61 0.00 92 1013.1
20260906040031 25 175 0.0 0.0 0.00 0.61 0.00 92 1013.3
20260906035029 25 175 0.0 0.0 0.00 0.61 0.61 92 1013.3
20260906034029 25 176 0.0 0.0 0.00 0.61 0.61 91 1013.3
20260906033454 25 175 0.0 0.0 0.00 0.61 0.61 91 1013.4
20260906032500 25 176 0.0 4.8 0.00 0.61 0.61 91 1013.4
20260906031018 25 175 0.0 6.4 0.00 0.61 0.61 90 1013.5
20260906030018 25 176 3.2 8.0 0.00 0.61 0.61 90 1013.4
20260906025930 25 176 4.8 11.3 0.00 0.61 0.61 90 1013.4
20260906024018 25 191 3.2 6.4 0.00 0.61 0.61 90 1013.5
20260906023019 26 190 6.4 16.1 0.00 0.61 0.61 90 1013.6
20260906022015 26 163 6.4 11.3 0.00 0.61 0.61 91 1013.6
20260906021501 26 173 4.8 14.5 0.00 0.61 0.61 92 1013.5
20260906020017 25 194 3.2 11.3 0.00 0.64 0.61 92 1013.4
20260906015014 25 154 3.2 8.0 0.00 0.64 0.61 92 1013.4
20260906014502 25 146 3.2 6.4 0.00 0.64 0.61 92 1013.4
20260906013013 25 135 1.6 4.8 0.00 0.64 0.61 92 1013.2
20260906012015 25 131 0.0 4.8 0.00 0.66 0.61 92 1013.3
20260906011017 25 129 1.6 4.8 0.00 0.69 0.61 91 1013.1
20260906010456 26 129 0.0 3.2 0.00 0.69 0.61 91 1013.0
20260906005011 26 129 1.6 6.4 0.00 0.69 0.61 91 1012.9
20260906004009 26 129 3.2 11.3 0.00 0.69 0.61 91 1012.7
20260906003451 26 115 3.2 12.9 0.00 0.69 0.61 91 1012.8
20260906002009 26 229 0.0 4.8 0.00 0.69 0.61 92 1012.6
20260906001006 26 230 0.0 3.2 0.00 0.74 0.61 92 1012.5
20260906000005 26 230 0.0 1.6 0.00 0.74 0.61 91 1012.5
20260905235005 26 229 1.6 6.4 0.00 0.74 0.61 91 1012.5
20260905234006 26 258 1.6 6.4 0.00 0.74 0.61 91 1012.5
20260905233008 26 344 0.0 3.2 0.00 0.74 0.61 90 1012.4
20260905232434 26 346 0.0 1.6 0.00 0.74 0.61 89 1012.3
20260905231438 26 346 0.0 3.2 0.00 0.74 0.61 90 1012.0
20260905225955 27 346 1.6 4.8 0.00 0.74 0.61 89 1012.2
20260905224956 26 346 3.2 6.4 0.03 0.74 0.61 90 1012.3
20260905223956 26 344 1.6 8.0 0.05 0.74 0.61 91 1012.8
20260905222951 26 354 1.6 6.4 0.23 0.74 0.61 91 1012.8
20260905221952 26 356 1.6 6.4 0.46 0.74 0.61 90 1012.6
20260905221437 26 350 4.8 9.7 0.58 0.74 0.61 90 1012.8
20260905215951 25 15 3.2 6.4 0.58 0.74 0.61 89 1012.6
20260905214951 25 19 4.8 12.9 0.56 0.71 0.58 88 1012.6
20260905213949 25 355 9.7 24.1 0.53 0.69 0.58 87 1012.6
20260905213509 27 271 17.7 45.1 0.13 0.28 0.15 75 1012.8
20260905213433 25 10 9.7 24.1 0.36 0.51 0.41 85 1013.0
20260905211430 31 229 8.0 19.3 0.00 0.18 0.03 66 1012.5
20260905205948 32 235 4.8 14.5 0.00 0.43 0.03 65 1012.1
20260905204950 33 283 4.8 11.3 0.00 0.46 0.03 63 1011.9
20260905203950 34 302 4.8 12.9 0.00 0.46 0.03 60 1011.7
20260905202948 35 269 6.4 16.1 0.00 0.46 0.03 62 1011.9
20260905201947 33 262 8.0 16.1 0.00 0.46 0.03 65 1011.7
20260905201907 34 246 6.4 20.9 0.00 0.46 0.03 61 1011.9
20260905195946 34 306 4.8 16.1 0.00 0.46 0.03 61 1012.0
20260905194947 35 328 8.0 17.7 0.00 0.46 0.03 62 1012.0
20260905193946 35 15 8.0 17.7 0.00 0.46 0.03 61 1012.0
20260905192946 34 349 8.0 16.1 0.00 0.46 0.03 66 1012.3
20260905191939 32 299 6.4 17.7 0.00 0.46 0.03 68 1012.3
20260905190937 33 300 6.4 17.7 0.00 0.46 0.03 64 1012.5
20260905185938 35 223 4.8 20.9 0.00 0.46 0.03 60 1012.5
20260905184939 35 264 6.4 16.1 0.00 0.46 0.03 56 1012.4
20260905183929 35 237 8.0 20.9 0.00 0.46 0.03 57 1012.4
20260905183409 35 242 8.0 17.7 0.00 0.46 0.03 57 1012.4
20260905182405 35 230 8.0 17.7 0.00 0.46 0.03 60 1012.6
20260905180931 34 244 4.8 12.9 0.00 0.46 0.03 64 1012.7
20260905175929 35 244 6.4 14.5 0.00 0.46 0.03 61 1012.9
20260905174929 35 293 4.8 11.3 0.00 0.46 0.03 61 1013.1
20260905174410 33 250 6.4 14.5 0.00 0.46 0.03 66 1013.2
20260905172930 33 212 4.8 9.7 0.00 0.46 0.03 63 1013.4
20260905171930 32 278 4.8 11.3 0.00 0.46 0.03 65 1013.6